This is the latest recevied weather packets stored in our database for station/object KE6LRO. If no packets are shown the sender has not sent any weather packets the latest 10 day(s).
| Time | Temp. | Humidity | Pressure | Rain* | Wind** | Luminosity | Snow |
|---|---|---|---|---|---|---|---|
| 1778077597 | 2.22° C | 83% | 1022.4 hPa | 0 mm | - | 206 W/m² | - |
| 1778077295 | 1.67° C | 83% | 1022.5 hPa | 0 mm | - | 188 W/m² | - |
| 1778076992 | 0.56° C | 87% | 1022.6 hPa | 0 mm | - | 173 W/m² | - |
| 1778076690 | 0° C | 89% | 1022.6 hPa | 0 mm | - | 133 W/m² | - |
| 1778076388 | -1.11° C | 94% | 1022.6 hPa | 0 mm | - | 148 W/m² | - |
| 1778076085 | -1.11° C | 96% | 1022.5 hPa | 0 mm | - | 142 W/m² | - |
| 1778075781 | -2.22° C | 96% | 1022.7 hPa | 0 mm | - | 70 W/m² | - |
| 1778075478 | -2.22° C | 96% | 1022.6 hPa | 0 mm | - | 40 W/m² | - |
| 1778075174 | -2.22° C | 96% | 1022.6 hPa | 0 mm | - | 36 W/m² | - |
| 1778074870 | -2.22° C | 96% | 1022.6 hPa | 0 mm | - | 32 W/m² | - |
| 1778074568 | -2.22° C | 96% | 1022.6 hPa | 0 mm | - | 29 W/m² | - |
| 1778074265 | -2.22° C | 96% | 1022.6 hPa | 0 mm | - | 28 W/m² | - |
| 1778073962 | -2.22° C | 96% | 1022.6 hPa | 0 mm | - | 31 W/m² | - |
| 1778073659 | -2.22° C | 96% | 1022.6 hPa | 0 mm | - | 33 W/m² | - |
| 1778073356 | -2.22° C | 97% | 1022.7 hPa | 0 mm | - | 27 W/m² | - |
| 1778073052 | -2.22° C | 97% | 1022.6 hPa | 0 mm | - | 29 W/m² | - |
| 1778072749 | -2.78° C | 97% | 1022.5 hPa | 0 mm | - | 27 W/m² | - |
| 1778072447 | -2.78° C | 98% | 1022.7 hPa | 0 mm | - | 33 W/m² | - |
| 1778072145 | -3.33° C | 98% | 1022.7 hPa | 0 mm | - | 24 W/m² | - |
| 1778071843 | -3.33° C | 98% | 1022.6 hPa | 0 mm | - | 19 W/m² | - |
| 1778071540 | -3.33° C | 98% | 1022.5 hPa | 0 mm | - | 16 W/m² | - |
| 1778071238 | -3.33° C | 98% | 1022.6 hPa | 0 mm | - | 13 W/m² | - |
| 1778070935 | -3.33° C | 98% | 1022.6 hPa | 0 mm | - | 13 W/m² | - |
| 1778070633 | -3.33° C | 98% | 1022.7 hPa | 0 mm | - | 10 W/m² | - |
| 1778070329 | -3.33° C | 98% | 1022.5 hPa | 0 mm | - | 6 W/m² | - |
* Rain latest hour (hover to see other rain measurements)
** Current wind speed in m/s (hover to see current wind gust speed)